Wetterdaten: aktuell Dienstag, 16.07.2019 12:40
Datum Zeit Temp. A. Temp. A. min Feuchte A. Luftdruck Regen Wind Richtung Richtung Sonnenschein Solar Taupunkt Windchill Windben
16.07.2019 12:40 21,6 C 21,5 C 58 % 1024,6 hPa 0,0 l/m 5,0 km/h (1 Bft) NO 34 0 min 0 W/m 13,0 C 21,6 C 8,0 km/h (2 Bft)
16.07.2019 12:35 21,5 C 21,2 C 58 % 1024,6 hPa 0,0 l/m 8,0 km/h (2 Bft) N-NW 338 0 min 0 W/m 12,9 C 21,5 C 16,1 km/h (3 Bft)
16.07.2019 12:30 21,2 C 20,9 C 59 % 1024,7 hPa 0,0 l/m 6,0 km/h (2 Bft) SW 234 0 min 0 W/m 12,9 C 21,2 C 14,5 km/h (3 Bft)
16.07.2019 12:25 20,9 C 20,5 C 62 % 1024,6 hPa 0,0 l/m 7,8 km/h (2 Bft) W-NW 285 0 min 0 W/m 13,3 C 20,9 C 16,1 km/h (3 Bft)
16.07.2019 12:20 20,5 C 20,5 C 62 % 1024,7 hPa 0,0 l/m 3,3 km/h (1 Bft) O-SO 111 0 min 0 W/m 13,0 C 20,5 C 6,4 km/h (2 Bft)
16.07.2019 12:15 20,7 C 20,7 C 59 % 1024,7 hPa 0,0 l/m 6,1 km/h (2 Bft) NW 323 0 min 0 W/m 12,4 C 20,7 C 12,9 km/h (3 Bft)
16.07.2019 12:10 21,1 C 21,1 C 59 % 1024,7 hPa 0,0 l/m 3,8 km/h (1 Bft) W-NW 295 0 min 0 W/m 12,8 C 21,1 C 12,9 km/h (3 Bft)
16.07.2019 12:05 21,1 C 21,0 C 60 % 1024,8 hPa 0,0 l/m 4,5 km/h (1 Bft) W 277 0 min 0 W/m 13,0 C 21,1 C 14,5 km/h (3 Bft)
16.07.2019 12:00 21,0 C 20,9 C 59 % 1024,8 hPa 0,0 l/m 3,8 km/h (1 Bft) W 259 0 min 0 W/m 12,7 C 21,0 C 8,0 km/h (2 Bft)
16.07.2019 11:55 20,9 C 20,8 C 59 % 1024,9 hPa 0,0 l/m 5,3 km/h (1 Bft) S-SW 210 0 min 0 W/m 12,6 C 20,9 C 12,9 km/h (3 Bft)
16.07.2019 11:50 20,8 C 20,7 C 61 % 1024,8 hPa 0,0 l/m 5,2 km/h (1 Bft) NW 326 0 min 0 W/m 13,0 C 20,8 C 12,9 km/h (3 Bft)
16.07.2019 11:45 20,7 C 20,6 C 63 % 1024,7 hPa 0,0 l/m 3,5 km/h (1 Bft) SW 215 0 min 0 W/m 13,4 C 20,7 C 6,4 km/h (2 Bft)
16.07.2019 11:40 20,6 C 20,3 C 60 % 1024,8 hPa 0,0 l/m 4,2 km/h (1 Bft) S 173 0 min 0 W/m 12,6 C 20,6 C 14,5 km/h (3 Bft)
16.07.2019 11:35 20,3 C 20,2 C 61 % 1024,9 hPa 0,0 l/m 3,8 km/h (1 Bft) S 186 0 min 0 W/m 12,5 C 20,3 C 8,0 km/h (2 Bft)
16.07.2019 11:30 20,3 C 20,1 C 62 % 1024,9 hPa 0,0 l/m 5,4 km/h (1 Bft) N-NW 338 0 min 0 W/m 12,8 C 20,3 C 12,9 km/h (3 Bft)
16.07.2019 11:25 20,1 C 19,9 C 63 % 1024,8 hPa 0,0 l/m 4,1 km/h (1 Bft) NW 309 0 min 0 W/m 12,8 C 20,1 C 9,7 km/h (2 Bft)
16.07.2019 11:20 19,9 C 19,6 C 64 % 1024,9 hPa 0,0 l/m 3,8 km/h (1 Bft) W 273 0 min 0 W/m 12,9 C 19,9 C 9,7 km/h (2 Bft)
16.07.2019 11:15 19,6 C 19,2 C 65 % 1024,8 hPa 0,0 l/m 5,7 km/h (1 Bft) W-NW 290 0 min 0 W/m 12,8 C 19,6 C 12,9 km/h (3 Bft)
16.07.2019 11:10 19,2 C 19,1 C 66 % 1024,9 hPa 0,0 l/m 6,5 km/h (2 Bft) W-NW 284 0 min 0 W/m 12,7 C 19,2 C 14,5 km/h (3 Bft)
16.07.2019 11:05 19,1 C 19,1 C 65 % 1024,9 hPa 0,0 l/m 6,8 km/h (2 Bft) N-NW 333 0 min 0 W/m 12,4 C 19,1 C 16,1 km/h (3 Bft)
16.07.2019 11:00 19,2 C 19,1 C 65 % 1024,8 hPa 0,0 l/m 5,2 km/h (1 Bft) N-NW 343 0 min 0 W/m 12,5 C 19,2 C 14,5 km/h (3 Bft)
16.07.2019 10:55 19,1 C 19,0 C 67 % 1024,8 hPa 0,0 l/m 3,5 km/h (1 Bft) W 276 0 min 0 W/m 12,8 C 19,1 C 12,9 km/h (3 Bft)
16.07.2019 10:50 19,0 C 18,9 C 67 % 1024,8 hPa 0,0 l/m 4,3 km/h (1 Bft) N 360 0 min 0 W/m 12,7 C 19,0 C 8,0 km/h (2 Bft)
16.07.2019 10:45 18,9 C 18,9 C 66 % 1024,8 hPa 0,0 l/m 3,0 km/h (1 Bft) W 277 0 min 0 W/m 12,4 C 18,9 C 6,4 km/h (2 Bft)
16.07.2019 10:40 18,9 C 18,9 C 66 % 1024,8 hPa 0,0 l/m 5,5 km/h (1 Bft) NW 321 0 min 0 W/m 12,4 C 18,9 C 11,3 km/h (2 Bft)
16.07.2019 10:35 19,0 C 18,8 C 66 % 1024,8 hPa 0,0 l/m 3,1 km/h (1 Bft) N-NW 345 0 min 0 W/m 12,5 C 19,0 C 6,4 km/h (2 Bft)
16.07.2019 10:30 18,8 C 18,5 C 68 % 1024,8 hPa 0,0 l/m 4,5 km/h (1 Bft) N 5 0 min 0 W/m 12,8 C 18,8 C 9,7 km/h (2 Bft)
16.07.2019 10:25 18,5 C 18,3 C 67 % 1024,8 hPa 0,0 l/m 2,5 km/h (1 Bft) SO 136 0 min 0 W/m 12,3 C 18,5 C 4,8 km/h (1 Bft)
16.07.2019 10:20 18,3 C 18,3 C 67 % 1024,9 hPa 0,0 l/m 4,2 km/h (1 Bft) W-NW 286 0 min 0 W/m 12,1 C 18,3 C 8,0 km/h (2 Bft)
16.07.2019 10:15 18,3 C 18,2 C 68 % 1024,9 hPa 0,0 l/m 4,5 km/h (1 Bft) N-NW 333 0 min 0 W/m 12,3 C 18,3 C 9,7 km/h (2 Bft)
16.07.2019 10:10 18,2 C 18,2 C 68 % 1024,9 hPa 0,0 l/m 3,6 km/h (1 Bft) O-NO 67 0 min 0 W/m 12,2 C 18,2 C 6,4 km/h (2 Bft)
16.07.2019 10:05 18,2 C 18,2 C 67 % 1025,0 hPa 0,0 l/m 3,8 km/h (1 Bft) NO 45 0 min 0 W/m 12,0 C 18,2 C 6,4 km/h (2 Bft)
16.07.2019 10:00 18,3 C 18,3 C 67 % 1024,9 hPa 0,0 l/m 2,1 km/h (1 Bft) S-SW 208 0 min 0 W/m 12,1 C 18,3 C 4,8 km/h (1 Bft)
16.07.2019 09:55 18,6 C 18,6 C 64 % 1025,0 hPa 0,0 l/m 4,9 km/h (1 Bft) W 279 0 min 0 W/m 11,7 C 18,6 C 11,3 km/h (2 Bft)
16.07.2019 09:50 18,8 C 18,8 C 67 % 1024,9 hPa 0,0 l/m 5,2 km/h (1 Bft) W-NW 285 0 min 0 W/m 12,5 C 18,8 C 12,9 km/h (3 Bft)
16.07.2019 09:45 18,9 C 18,7 C 68 % 1024,9 hPa 0,0 l/m 3,4 km/h (1 Bft) O-SO 107 0 min 0 W/m 12,9 C 18,9 C 8,0 km/h (2 Bft)
16.07.2019 09:40 18,7 C 18,4 C 71 % 1024,9 hPa 0,0 l/m 1,9 km/h (1 Bft) O 86 0 min 0 W/m 13,3 C 18,7 C 3,2 km/h (1 Bft)
16.07.2019 09:35 18,4 C 18,2 C 70 % 1024,8 hPa 0,0 l/m 2,3 km/h (1 Bft) O-NO 76 0 min 0 W/m 12,8 C 18,4 C 4,8 km/h (1 Bft)
16.07.2019 09:30 18,2 C 18,1 C 72 % 1024,9 hPa 0,0 l/m 3,6 km/h (1 Bft) O-NO 70 0 min 0 W/m 13,1 C 18,2 C 6,4 km/h (2 Bft)
16.07.2019 09:25 18,1 C 17,8 C 72 % 1024,9 hPa 0,0 l/m 2,4 km/h (1 Bft) N-NO 20 0 min 0 W/m 13,0 C 18,1 C 4,8 km/h (1 Bft)
16.07.2019 09:20 17,8 C 17,6 C 74 % 1025,0 hPa 0,0 l/m 1,5 km/h (1 Bft) S-SO 154 0 min 0 W/m 13,1 C 17,8 C 3,2 km/h (1 Bft)
16.07.2019 09:15 17,6 C 17,3 C 76 % 1025,0 hPa 0,0 l/m 2,8 km/h (1 Bft) S-SO 155 0 min 0 W/m 13,3 C 17,6 C 6,4 km/h (2 Bft)
16.07.2019 09:10 17,3 C 17,1 C 75 % 1025,1 hPa 0,0 l/m 3,4 km/h (1 Bft) S-SO 151 0 min 0 W/m 12,8 C 17,3 C 8,0 km/h (2 Bft)
16.07.2019 09:05 17,1 C 16,7 C 76 % 1025,1 hPa 0,0 l/m 3,1 km/h (1 Bft) S-SW 198 0 min 0 W/m 12,8 C 17,1 C 6,4 km/h (2 Bft)
16.07.2019 09:00 16,7 C 16,4 C 79 % 1025,0 hPa 0,0 l/m 2,7 km/h (1 Bft) S-SW 200 0 min 0 W/m 13,0 C 16,7 C 6,4 km/h (2 Bft)
16.07.2019 08:55 16,4 C 15,9 C 80 % 1025,1 hPa 0,0 l/m 2,0 km/h (1 Bft) W-SW 256 0 min 0 W/m 12,9 C 16,4 C 3,2 km/h (1 Bft)
16.07.2019 08:50 15,9 C 15,6 C 82 % 1025,1 hPa 0,0 l/m 2,3 km/h (1 Bft) SW 222 0 min 0 W/m 12,8 C 15,9 C 4,8 km/h (1 Bft)
16.07.2019 08:45 15,6 C 15,2 C 85 % 1025,2 hPa 0,0 l/m 2,2 km/h (1 Bft) S-SW 202 0 min 0 W/m 13,1 C 15,6 C 4,8 km/h (1 Bft)
16.07.2019 08:40 15,2 C 14,6 C 86 % 1025,2 hPa 0,0 l/m 2,1 km/h (1 Bft) S-SW 196 0 min 0 W/m 12,9 C 15,2 C 4,8 km/h (1 Bft)
16.07.2019 08:35 14,6 C 13,9 C 90 % 1025,2 hPa 0,0 l/m 2,7 km/h (1 Bft) S 183 0 min 0 W/m 13,0 C 14,6 C 4,8 km/h (1 Bft)
16.07.2019 08:30 13,9 C 13,5 C 91 % 1025,2 hPa 0,0 l/m 2,3 km/h (1 Bft) W-NW 284 0 min 0 W/m 12,5 C 13,9 C 6,4 km/h (2 Bft)
16.07.2019 08:25 13,5 C 13,0 C 92 % 1025,2 hPa 0,0 l/m 2,5 km/h (1 Bft) S-SO 158 0 min 0 W/m 12,2 C 13,5 C 8,0 km/h (2 Bft)
16.07.2019 08:20 13,0 C 12,6 C 92 % 1025,2 hPa 0,0 l/m 3,3 km/h (1 Bft) S 184 0 min 0 W/m 11,7 C 13,0 C 6,4 km/h (2 Bft)
16.07.2019 08:15 12,6 C 12,3 C 92 % 1025,3 hPa 0,0 l/m 3,1 km/h (1 Bft) S-SO 154 0 min 0 W/m 11,3 C 12,6 C 6,4 km/h (2 Bft)
16.07.2019 08:10 12,3 C 12,1 C 92 % 1025,3 hPa 0,0 l/m 3,5 km/h (1 Bft) SO 146 0 min 0 W/m 11,0 C 12,3 C 6,4 km/h (2 Bft)
16.07.2019 08:05 12,1 C 11,9 C 92 % 1025,3 hPa 0,0 l/m 3,4 km/h (1 Bft) SO 140 0 min 0 W/m 10,8 C 12,1 C 6,4 km/h (2 Bft)
16.07.2019 08:00 11,9 C 11,7 C 92 % 1025,3 hPa 0,0 l/m 2,6 km/h (1 Bft) SO 136 0 min 0 W/m 10,6 C 11,9 C 4,8 km/h (1 Bft)
16.07.2019 07:55 11,7 C 11,6 C 93 % 1025,3 hPa 0,0 l/m 2,2 km/h (1 Bft) O-SO 103 0 min 0 W/m 10,6 C 11,7 C 4,8 km/h (1 Bft)
16.07.2019 07:50 11,6 C 11,4 C 92 % 1025,3 hPa 0,0 l/m 0,8 km/h (0 Bft) N-NO 22 0 min 0 W/m 10,3 C 11,6 C 3,2 km/h (1 Bft)
16.07.2019 07:45 11,4 C 11,3 C 92 % 1025,2 hPa 0,0 l/m 0,7 km/h (0 Bft) N-NO 22 0 min 0 W/m 10,1 C 11,4 C 3,2 km/h (1 Bft)
16.07.2019 07:40 11,3 C 11,2 C 93 % 1025,2 hPa 0,0 l/m 1,1 km/h (1 Bft) N-NO 22 0 min 0 W/m 10,2 C 11,3 C 3,2 km/h (1 Bft)
16.07.2019 07:35 11,2 C 11,0 C 92 % 1025,1 hPa 0,0 l/m 1,2 km/h (1 Bft) N-NO 22 0 min 0 W/m 9,9 C 11,2 C 3,2 km/h (1 Bft)
16.07.2019 07:30 11,0 C 10,9 C 93 % 1025,2 hPa 0,0 l/m 1,0 km/h (0 Bft) N-NO 19 0 min 0 W/m 9,9 C 11,0 C 3,2 km/h (1 Bft)
16.07.2019 07:25 10,9 C 10,7 C 93 % 1025,2 hPa 0,0 l/m 1,5 km/h (1 Bft) N-NO 19 0 min 0 W/m 9,8 C 10,9 C 3,2 km/h (1 Bft)
16.07.2019 07:20 10,7 C 10,6 C 92 % 1025,3 hPa 0,0 l/m 1,8 km/h (1 Bft) N-NO 19 0 min 0 W/m 9,5 C 10,7 C 3,2 km/h (1 Bft)
16.07.2019 07:15 10,6 C 10,5 C 92 % 1025,3 hPa 0,0 l/m 1,8 km/h (1 Bft) NO 36 0 min 0 W/m 9,4 C 10,6 C 3,2 km/h (1 Bft)
16.07.2019 07:10 10,5 C 10,4 C 92 % 1025,3 hPa 0,0 l/m 1,3 km/h (1 Bft) NO 38 0 min 0 W/m 9,3 C 10,5 C 3,2 km/h (1 Bft)
16.07.2019 07:05 10,4 C 10,3 C 92 % 1025,3 hPa 0,0 l/m 0,8 km/h (0 Bft) NO 40 0 min 0 W/m 9,2 C 10,4 C 1,6 km/h (1 Bft)
16.07.2019 07:00 10,3 C 10,3 C 92 % 1025,4 hPa 0,0 l/m 1,0 km/h (0 Bft) NO 40 0 min 0 W/m 9,1 C 10,3 C 3,2 km/h (1 Bft)
16.07.2019 06:55 10,3 C 10,2 C 92 % 1025,4 hPa 0,0 l/m 2,2 km/h (1 Bft) NO 40 0 min 0 W/m 9,1 C 10,3 C 3,2 km/h (1 Bft)
16.07.2019 06:50 10,2 C 10,2 C 92 % 1025,4 hPa 0,0 l/m 1,9 km/h (1 Bft) NO 39 0 min 0 W/m 9,0 C 10,2 C 4,8 km/h (1 Bft)
16.07.2019 06:45 10,2 C 10,1 C 92 % 1025,3 hPa 0,0 l/m 1,0 km/h (0 Bft) NO 39 0 min 0 W/m 9,0 C 10,2 C 3,2 km/h (1 Bft)
16.07.2019 06:40 10,2 C 10,1 C 92 % 1025,3 hPa 0,0 l/m 1,5 km/h (1 Bft) NO 40 0 min 0 W/m 9,0 C 10,2 C 3,2 km/h (1 Bft)
16.07.2019 06:35 10,1 C 10,1 C 92 % 1025,3 hPa 0,0 l/m 1,4 km/h (1 Bft) NO 40 0 min 0 W/m 8,9 C 10,1 C 3,2 km/h (1 Bft)
16.07.2019 06:30 10,1 C 10,1 C 92 % 1025,3 hPa 0,0 l/m 2,3 km/h (1 Bft) NO 39 0 min 0 W/m 8,9 C 10,1 C 4,8 km/h (1 Bft)
16.07.2019 06:25 10,1 C 10,1 C 92 % 1025,3 hPa 0,0 l/m 2,3 km/h (1 Bft) NO 39 0 min 0 W/m 8,9 C 10,1 C 3,2 km/h (1 Bft)
16.07.2019 06:20 10,1 C 10,1 C 92 % 1025,3 hPa 0,0 l/m 1,9 km/h (1 Bft) NO 39 0 min 0 W/m 8,9 C 10,1 C 3,2 km/h (1 Bft)
16.07.2019 06:15 10,1 C 10,1 C 92 % 1025,2 hPa 0,0 l/m 2,2 km/h (1 Bft) NO 39 0 min 0 W/m 8,9 C 10,1 C 4,8 km/h (1 Bft)
16.07.2019 06:10 10,1 C 10,1 C 91 % 1025,2 hPa 0,0 l/m 3,0 km/h (1 Bft) NO 38 0 min 0 W/m 8,7 C 10,1 C 4,8 km/h (1 Bft)
16.07.2019 06:05 10,1 C 10,1 C 91 % 1025,1 hPa 0,0 l/m 2,2 km/h (1 Bft) NO 39 0 min 0 W/m 8,7 C 10,1 C 3,2 km/h (1 Bft)
16.07.2019 06:00 10,1 C 10,1 C 91 % 1025,2 hPa 0,0 l/m 2,3 km/h (1 Bft) NO 39 0 min 0 W/m 8,7 C 10,1 C 4,8 km/h (1 Bft)
16.07.2019 05:55 10,1 C 10,1 C 91 % 1025,2 hPa 0,0 l/m 3,1 km/h (1 Bft) NO 38 0 min 0 W/m 8,7 C 10,1 C 4,8 km/h (1 Bft)
16.07.2019 05:50 10,2 C 10,2 C 91 % 1025,1 hPa 0,0 l/m 3,1 km/h (1 Bft) NO 38 0 min 0 W/m 8,8 C 10,2 C 4,8 km/h (1 Bft)
16.07.2019 05:45 10,2 C 10,2 C 91 % 1025,1 hPa 0,0 l/m 2,0 km/h (1 Bft) NO 38 0 min 0 W/m 8,8 C 10,2 C 3,2 km/h (1 Bft)
16.07.2019 05:40 10,3 C 10,3 C 91 % 1025,1 hPa 0,0 l/m 1,5 km/h (1 Bft) NO 38 0 min 0 W/m 8,9 C 10,3 C 3,2 km/h (1 Bft)
16.07.2019 05:35 10,3 C 10,3 C 91 % 1025,1 hPa 0,0 l/m 2,0 km/h (1 Bft) NO 39 0 min 0 W/m 8,9 C 10,3 C 3,2 km/h (1 Bft)
16.07.2019 05:30 10,4 C 10,3 C 91 % 1025,1 hPa 0,0 l/m 2,2 km/h (1 Bft) NO 39 0 min 0 W/m 9,0 C 10,4 C 3,2 km/h (1 Bft)
16.07.2019 05:25 10,4 C 10,4 C 91 % 1025,2 hPa 0,0 l/m 1,9 km/h (1 Bft) NO 38 0 min 0 W/m 9,0 C 10,4 C 4,8 km/h (1 Bft)
16.07.2019 05:20 10,4 C 10,4 C 91 % 1025,2 hPa 0,0 l/m 2,0 km/h (1 Bft) NO 38 0 min 0 W/m 9,0 C 10,4 C 3,2 km/h (1 Bft)
16.07.2019 05:15 10,6 C 10,5 C 91 % 1025,1 hPa 0,0 l/m 2,4 km/h (1 Bft) NO 38 0 min 0 W/m 9,2 C 10,6 C 4,8 km/h (1 Bft)
16.07.2019 05:10 10,6 C 10,6 C 91 % 1025,2 hPa 0,0 l/m 3,0 km/h (1 Bft) NO 38 0 min 0 W/m 9,2 C 10,6 C 4,8 km/h (1 Bft)
16.07.2019 05:05 10,6 C 10,6 C 91 % 1025,2 hPa 0,0 l/m 2,1 km/h (1 Bft) NO 40 0 min 0 W/m 9,2 C 10,6 C 3,2 km/h (1 Bft)
16.07.2019 05:00 10,6 C 10,6 C 91 % 1025,1 hPa 0,0 l/m 2,0 km/h (1 Bft) NO 40 0 min 0 W/m 9,2 C 10,6 C 3,2 km/h (1 Bft)
16.07.2019 04:55 10,7 C 10,7 C 91 % 1025,2 hPa 0,0 l/m 1,2 km/h (1 Bft) NO 37 0 min 0 W/m 9,3 C 10,7 C 3,2 km/h (1 Bft)
16.07.2019 04:50 10,7 C 10,7 C 90 % 1025,2 hPa 0,0 l/m 2,0 km/h (1 Bft) NO 37 0 min 0 W/m 9,1 C 10,7 C 3,2 km/h (1 Bft)
16.07.2019 04:45 10,7 C 10,7 C 90 % 1025,2 hPa 0,0 l/m 2,3 km/h (1 Bft) NO 37 0 min 0 W/m 9,1 C 10,7 C 4,8 km/h (1 Bft)
16.07.2019 04:40 10,8 C 10,8 C 90 % 1025,2 hPa 0,0 l/m 2,7 km/h (1 Bft) NO 36 0 min 0 W/m 9,2 C 10,8 C 4,8 km/h (1 Bft)
16.07.2019 04:35 10,8 C 10,8 C 90 % 1025,1 hPa 0,0 l/m 3,2 km/h (1 Bft) NO 36 0 min 0 W/m 9,2 C 10,8 C 4,8 km/h (1 Bft)
16.07.2019 04:30 10,9 C 10,9 C 90 % 1025,2 hPa 0,0 l/m 2,4 km/h (1 Bft) NO 37 0 min 0 W/m 9,3 C 10,9 C 3,2 km/h (1 Bft)
16.07.2019 04:25 10,9 C 10,9 C 90 % 1025,1 hPa 0,0 l/m 2,3 km/h (1 Bft) NO 37 0 min 0 W/m 9,3 C 10,9 C 3,2 km/h (1 Bft)
16.07.2019 04:20 11,0 C 11,0 C 90 % 1025,1 hPa 0,0 l/m 2,2 km/h (1 Bft) NO 37 0 min 0 W/m 9,4 C 11,0 C 4,8 km/h (1 Bft)
16.07.2019 04:15 11,1 C 11,1 C 90 % 1025,2 hPa 0,0 l/m 2,8 km/h (1 Bft) NO 34 0 min 0 W/m 9,5 C 11,1 C 4,8 km/h (1 Bft)
16.07.2019 04:10 11,2 C 11,2 C 90 % 1025,2 hPa 0,0 l/m 1,9 km/h (1 Bft) O-NO 62 0 min 0 W/m 9,6 C 11,2 C 3,2 km/h (1 Bft)
16.07.2019 04:05 11,2 C 11,2 C 90 % 1025,2 hPa 0,0 l/m 2,2 km/h (1 Bft) O-NO 62 0 min 0 W/m 9,6 C 11,2 C 3,2 km/h (1 Bft)
16.07.2019 04:00 11,3 C 11,3 C 90 % 1025,2 hPa 0,0 l/m 2,1 km/h (1 Bft) O-NO 62 0 min 0 W/m 9,7 C 11,3 C 3,2 km/h (1 Bft)
16.07.2019 03:55 11,3 C 11,3 C 89 % 1025,2 hPa 0,0 l/m 1,2 km/h (1 Bft) O-NO 62 0 min 0 W/m 9,6 C 11,3 C 3,2 km/h (1 Bft)
16.07.2019 03:50 11,4 C 11,4 C 89 % 1025,2 hPa 0,0 l/m 1,7 km/h (1 Bft) O-NO 62 0 min 0 W/m 9,7 C 11,4 C 3,2 km/h (1 Bft)
16.07.2019 03:45 11,4 C 11,4 C 89 % 1025,2 hPa 0,0 l/m 1,2 km/h (1 Bft) O-NO 62 0 min 0 W/m 9,7 C 11,4 C 3,2 km/h (1 Bft)
16.07.2019 03:40 11,5 C 11,5 C 89 % 1025,2 hPa 0,0 l/m 1,1 km/h (1 Bft) O-NO 62 0 min 0 W/m 9,8 C 11,5 C 3,2 km/h (1 Bft)
16.07.2019 03:35 11,6 C 11,6 C 89 % 1025,1 hPa 0,0 l/m 1,9 km/h (1 Bft) O-NO 62 0 min 0 W/m 9,8 C 11,6 C 3,2 km/h (1 Bft)
16.07.2019 03:30 11,7 C 11,7 C 89 % 1025,1 hPa 0,0 l/m 1,6 km/h (1 Bft) O-NO 62 0 min 0 W/m 9,9 C 11,7 C 3,2 km/h (1 Bft)
16.07.2019 03:25 11,7 C 11,7 C 89 % 1025,1 hPa 0,0 l/m 2,0 km/h (1 Bft) O-NO 62 0 min 0 W/m 9,9 C 11,7 C 4,8 km/h (1 Bft)
16.07.2019 03:20 11,8 C 11,8 C 88 % 1025,1 hPa 0,0 l/m 2,1 km/h (1 Bft) O-NO 62 0 min 0 W/m 9,9 C 11,8 C 4,8 km/h (1 Bft)
16.07.2019 03:15 11,9 C 11,9 C 88 % 1025,1 hPa 0,0 l/m 1,2 km/h (1 Bft) O-NO 63 0 min 0 W/m 10,0 C 11,9 C 1,6 km/h (1 Bft)
16.07.2019 03:10 11,9 C 11,9 C 88 % 1025,1 hPa 0,0 l/m 1,1 km/h (1 Bft) O-NO 63 0 min 0 W/m 10,0 C 11,9 C 3,2 km/h (1 Bft)
16.07.2019 03:05 12,0 C 12,0 C 88 % 1025,1 hPa 0,0 l/m 0,7 km/h (0 Bft) O-NO 63 0 min 0 W/m 10,1 C 12,0 C 3,2 km/h (1 Bft)
16.07.2019 03:00 12,1 C 12,1 C 88 % 1025,1 hPa 0,0 l/m 0,0 km/h (0 Bft) O-NO 63 0 min 0 W/m 10,2 C 12,1 C 0,0 km/h (0 Bft)
16.07.2019 02:55 12,2 C 12,2 C 88 % 1025,1 hPa 0,0 l/m 0,0 km/h (0 Bft) O-NO 63 0 min 0 W/m 10,3 C 12,2 C 0,0 km/h (0 Bft)
16.07.2019 02:50 12,2 C 12,2 C 87 % 1025,0 hPa 0,0 l/m 0,0 km/h (0 Bft) O-NO 63 0 min 0 W/m 10,1 C 12,2 C 0,0 km/h (0 Bft)
16.07.2019 02:45 12,3 C 12,3 C 87 % 1024,9 hPa 0,0 l/m 0,0 km/h (0 Bft) O-NO 63 0 min 0 W/m 10,2 C 12,3 C 0,0 km/h (0 Bft)
16.07.2019 02:40 12,4 C 12,4 C 87 % 1025,0 hPa 0,0 l/m 0,0 km/h (0 Bft) O-NO 63 0 min 0 W/m 10,3 C 12,4 C 0,0 km/h (0 Bft)
16.07.2019 02:35 12,5 C 12,5 C 87 % 1025,0 hPa 0,0 l/m 0,3 km/h (0 Bft) O-NO 63 0 min 0 W/m 10,4 C 12,5 C 1,6 km/h (1 Bft)
16.07.2019 02:30 12,6 C 12,6 C 87 % 1025,0 hPa 0,0 l/m 1,1 km/h (1 Bft) O-NO 63 0 min 0 W/m 10,5 C 12,6 C 1,6 km/h (1 Bft)
16.07.2019 02:25 12,7 C 12,7 C 87 % 1025,0 hPa 0,0 l/m 1,0 km/h (0 Bft) O-NO 63 0 min 0 W/m 10,6 C 12,7 C 3,2 km/h (1 Bft)
16.07.2019 02:20 12,8 C 12,7 C 86 % 1024,9 hPa 0,0 l/m 1,5 km/h (1 Bft) O-NO 63 0 min 0 W/m 10,5 C 12,8 C 3,2 km/h (1 Bft)
16.07.2019 02:15 12,8 C 12,8 C 86 % 1024,9 hPa 0,0 l/m 2,0 km/h (1 Bft) O-NO 63 0 min 0 W/m 10,5 C 12,8 C 3,2 km/h (1 Bft)
16.07.2019 02:10 12,9 C 12,9 C 86 % 1025,0 hPa 0,0 l/m 1,2 km/h (1 Bft) O-NO 63 0 min 0 W/m 10,6 C 12,9 C 3,2 km/h (1 Bft)
16.07.2019 02:05 13,0 C 13,0 C 86 % 1024,9 hPa 0,0 l/m 0,7 km/h (0 Bft) O-NO 63 0 min 0 W/m 10,7 C 13,0 C 3,2 km/h (1 Bft)
16.07.2019 02:00 13,1 C 13,1 C 85 % 1025,0 hPa 0,0 l/m 0,9 km/h (0 Bft) O-NO 63 0 min 0 W/m 10,6 C 13,1 C 3,2 km/h (1 Bft)
16.07.2019 01:55 13,2 C 13,2 C 85 % 1024,9 hPa 0,0 l/m 0,7 km/h (0 Bft) O-NO 63 0 min 0 W/m 10,7 C 13,2 C 3,2 km/h (1 Bft)
16.07.2019 01:50 13,3 C 13,3 C 85 % 1024,9 hPa 0,0 l/m 1,5 km/h (1 Bft) O-NO 63 0 min 0 W/m 10,8 C 13,3 C 3,2 km/h (1 Bft)
16.07.2019 01:45 13,5 C 13,5 C 85 % 1025,0 hPa 0,0 l/m 2,4 km/h (1 Bft) O-NO 63 0 min 0 W/m 11,0 C 13,5 C 4,8 km/h (1 Bft)
16.07.2019 01:40 13,6 C 13,6 C 84 % 1024,9 hPa 0,0 l/m 3,4 km/h (1 Bft) O-NO 63 0 min 0 W/m 10,9 C 13,6 C 4,8 km/h (1 Bft)
16.07.2019 01:35 13,7 C 13,7 C 84 % 1024,9 hPa 0,0 l/m 3,2 km/h (1 Bft) O-NO 66 0 min 0 W/m 11,0 C 13,7 C 4,8 km/h (1 Bft)
16.07.2019 01:30 13,8 C 13,8 C 84 % 1025,0 hPa 0,0 l/m 1,6 km/h (1 Bft) NO 50 0 min 0 W/m 11,1 C 13,8 C 3,2 km/h (1 Bft)
16.07.2019 01:25 13,9 C 13,9 C 84 % 1024,9 hPa 0,0 l/m 1,2 km/h (1 Bft) NO 50 0 min 0 W/m 11,2 C 13,9 C 3,2 km/h (1 Bft)
16.07.2019 01:20 14,0 C 14,0 C 83 % 1024,9 hPa 0,0 l/m 1,6 km/h (1 Bft) NO 50 0 min 0 W/m 11,2 C 14,0 C 3,2 km/h (1 Bft)
16.07.2019 01:15 14,1 C 14,1 C 83 % 1024,9 hPa 0,0 l/m 1,0 km/h (0 Bft) NO 50 0 min 0 W/m 11,3 C 14,1 C 3,2 km/h (1 Bft)
16.07.2019 01:10 14,2 C 14,2 C 83 % 1024,8 hPa 0,0 l/m 1,9 km/h (1 Bft) NO 50 0 min 0 W/m 11,4 C 14,2 C 3,2 km/h (1 Bft)
16.07.2019 01:05 14,2 C 14,2 C 83 % 1024,8 hPa 0,0 l/m 1,2 km/h (1 Bft) NO 50 0 min 0 W/m 11,4 C 14,2 C 3,2 km/h (1 Bft)
16.07.2019 01:00 14,3 C 14,3 C 83 % 1024,8 hPa 0,0 l/m 2,1 km/h (1 Bft) NO 49 0 min 0 W/m 11,5 C 14,3 C 4,8 km/h (1 Bft)
16.07.2019 00:55 14,4 C 14,4 C 83 % 1024,7 hPa 0,0 l/m 1,9 km/h (1 Bft) NW 321 0 min 0 W/m 11,5 C 14,4 C 4,8 km/h (1 Bft)
16.07.2019 00:50 14,4 C 14,4 C 82 % 1024,7 hPa 0,0 l/m 1,5 km/h (1 Bft) NW 321 0 min 0 W/m 11,4 C 14,4 C 3,2 km/h (1 Bft)
16.07.2019 00:45 14,5 C 14,5 C 82 % 1024,7 hPa 0,0 l/m 1,2 km/h (1 Bft) NW 321 0 min 0 W/m 11,5 C 14,5 C 3,2 km/h (1 Bft)
16.07.2019 00:40 14,6 C 14,6 C 82 % 1024,6 hPa 0,0 l/m 0,8 km/h (0 Bft) NW 321 0 min 0 W/m 11,6 C 14,6 C 1,6 km/h (1 Bft)
16.07.2019 00:35 14,6 C 14,6 C 82 % 1024,7 hPa 0,0 l/m 0,1 km/h (0 Bft) NW 321 0 min 0 W/m 11,6 C 14,6 C 1,6 km/h (1 Bft)
16.07.2019 00:30 14,7 C 14,7 C 82 % 1024,6 hPa 0,0 l/m 0,0 km/h (0 Bft) NW 321 0 min 0 W/m 11,7 C 14,7 C 1,6 km/h (1 Bft)
16.07.2019 00:25 14,8 C 14,8 C 81 % 1024,6 hPa 0,0 l/m 1,2 km/h (1 Bft) NW 321 0 min 0 W/m 11,6 C 14,8 C 3,2 km/h (1 Bft)
16.07.2019 00:20 14,9 C 14,9 C 81 % 1024,5 hPa 0,0 l/m 2,5 km/h (1 Bft) NW 321 0 min 0 W/m 11,7 C 14,9 C 4,8 km/h (1 Bft)
16.07.2019 00:15 15,0 C 15,0 C 81 % 1024,5 hPa 0,0 l/m 1,3 km/h (1 Bft) W-NW 284 0 min 0 W/m 11,8 C 15,0 C 3,2 km/h (1 Bft)
16.07.2019 00:10 15,1 C 15,1 C 80 % 1024,5 hPa 0,0 l/m 1,1 km/h (1 Bft) O-NO 77 0 min 0 W/m 11,7 C 15,1 C 3,2 km/h (1 Bft)
16.07.2019 00:05 15,3 C 15,3 C 80 % 1024,5 hPa 0,0 l/m 2,2 km/h (1 Bft) O-NO 77 0 min 0 W/m 11,9 C 15,3 C 3,2 km/h (1 Bft)
16.07.2019 00:00 15,4 C 15,4 C 80 % 1024,5 hPa 0,0 l/m 0,7 km/h (0 Bft) O-NO 77 0 min 0 W/m 12,0 C 15,4 C 3,2 km/h (1 Bft)
_ Min-Zeit 05:55 05:55 12:35 00:00 - 00:30 - - - - 05:55 05:55 02:40
Minimum _ 10,1 C 10,1 C 58 % 1024,5 hPa - 0,0 km/h (0 Bft) - - - - 8,7 C 10,1 C 0,0 km/h (0 Bft)
_ Max-Zeit 12:40 12:40 07:25 06:50 00:00 12:35 - - 00:00 00:00 11:45 12:40 11:05
Maximum _ 21,6 C 21,5 C 93 % 1025,4 hPa 0,0 l/m 8,0 km/h
N-NW (2 Bft)
- - 0 min 0 W/m 13,4 C 21,6 C 16,1 km/h
W (3 Bft)
Durchschnitt _ 14,3 C 14,2 C 82 % 1025,0 hPa #0,0 l/m 2,5 km/h (1 Bft) NO - #0 min. 0 W/m 11,0 C 14,3 C 5,3 km/h (1 Bft)